SCP
0 0 0 0 0 0 0 0 0 0 0 0 0 0 0 0 0 0 0 0 0 0 0 0 0 0 0 0 0 0 0 0
0 0 0 0 0 0 0 0 0 0 0 0 0 0 0 0 0 0 0 0 0 0 0 0 0 0 0 0 0 0 0 0
0 0 0 0 0 0 0 0 0 0 0 0 0 0 0 0 0 0 0 0 0 0 0 0 0 0 0 0 0 0 0 0
0 0 0 0 0 0 0 0 0 0 0 0 0 0 0 0 0 0 0 0 0 0 0 0 0 0 0 0 0 0 0 0
0 0 0 0 0 0 0 0 0 0 0 0 0 0 0 0 0 0 0 0 0 0 0 0 0 0 0 0 0 0 0 0
0 0 0 0 0 0 0 0 0 0 0 0 0 0 0 0 0 0 0 0 0 0 0 0 0 0 0 0 0 0 0 0
0 0 0 0 0 0 0 0 0 0 0 0 0 0 0 0 0 0 0 0 0 0 0 0 0 0 0 0 0 0 0 0
0 0 0 0 0 0 0 0 0 0 0 0 0 0 0 0 0 0 0 0 0 0 0 0 0 0 0 0 0 0 0 0
0 0 0 0 0 0 0 0 0 0 0 0 0 0 0 0 0 0 0 0 0 0 0 0 0 0 0 0 0 0 0 0
0 0 0 0 0 0 0 0 0 0 0 0 0 0 0 0 0 0 0 0 0 0 0 0 0 0 0 0 0 0 0 0
0 0 0 0 0 0 0 0 0 0 0 0 0 0 0 0 0 0 0 0 0 0 0 0 0 0 0 0 0 0 0 0
0 0 0 0 0 0 0 0 0 0 0 0 0 0 0 0 0 0 0 0 0 0 0 0 0 0 0 0 0 0 0 0
0 0 0 0 0 0 0 0 0 0 0 0 0 0 0 0 0 0 0 0 0 0 0 0 0 0 0 0 0 0 0 0
0 0 0 0 0 0 0 0 0 0 0 0 0 0 0 0 0 0 0 0 0 0 0 0 0 0 0 0 0 0 0 0
0 0 0 0 0 0 0 0 0 0 0 0 0 0 0 0 0 0 0 0 0 0 0 0 0 0 0 0 0 0 0 0
-0 -0 0 0 0 0 0 0 0 0 0 0 0 0 0 0 0 0 0 0 0 0 0 0 0 0 0 0 0 0 0 0
0 0 0 0 0 0 0 0 0 0 0 0 0 0 0 0 0 0 0 0 0 0 0 0 0 0 0 0 0 0 0 0
0 0 0 0 0 0 0 0 0 0 0 0 0 0 0 0 0 0 0 0 0 0 0 0 0 0 0 0 0 0 0 0
0 0 0 0 0 0 0 0 0 0 0 0 0 0 0 0 0 0 0 0 0 0 0 0 0 0 0 0 0 0 0 0
0 0 0 0 0 0 0 0 0 0 0 0 0 0 0 0 0 0 0 0 0 0 0 0 0 0 0 0 0 0 0 0
Wind_Speed_500mb
40 43 50 51 53 61 72 79 80 85 94 98 96 90 86 87 87 88 82 81 77 72 65 58 53 50 49 49 49 50 50 52
39 38 42 42 47 56 65 72 76 80 88 100 101 98 95 87 85 87 84 84 80 73 66 60 55 51 51 51 51 52 52 53
32 37 41 37 46 50 63 72 67 81 91 95 101 99 95 92 87 85 83 83 80 75 69 62 57 55 53 51 50 52 53 52
35 42 50 50 57 60 62 66 75 84 90 93 97 97 97 94 89 83 78 80 81 77 69 63 58 55 51 50 50 52 52 53
59 65 56 57 59 67 75 75 80 83 88 91 92 93 96 95 90 80 76 80 82 77 68 64 59 54 51 48 50 51 53 54
56 52 68 83 78 71 74 76 79 84 86 89 89 91 95 95 87 78 74 77 79 76 70 66 60 53 48 48 50 51 53 53
83 88 93 90 74 73 70 70 75 81 86 85 87 90 95 95 88 80 75 77 81 76 69 64 55 48 47 51 48 50 50 54
80 92 87 75 61 63 63 61 69 80 84 86 85 86 93 90 83 78 77 80 82 75 69 58 48 45 51 47 48 45 49 51
74 85 83 78 55 48 54 56 61 73 83 84 82 84 90 84 82 79 79 79 78 72 62 52 41 53 48 47 41 44 46 47
83 89 77 60 49 48 50 52 61 69 75 80 81 84 88 87 85 84 83 83 80 70 58 44 57 51 49 42 39 42 43 43
74 76 67 52 46 47 51 50 52 59 67 71 74 81 81 79 79 77 77 79 76 67 52 59 53 51 44 36 36 39 38 42
60 57 51 52 45 42 41 43 50 57 62 68 74 78 77 77 76 77 84 82 72 63 60 57 52 44 35 31 32 29 33 42
73 62 49 35 36 38 38 38 45 58 68 72 75 78 81 77 78 83 88 82 76 64 64 54 48 38 31 29 23 18 30 34
63 62 62 59 51 48 49 44 46 59 69 74 76 79 79 82 85 92 91 86 72 69 60 56 44 34 29 23 16 19 21 27
65 69 69 72 75 68 55 55 60 62 72 75 79 84 83 86 89 98 94 84 73 67 65 54 44 35 27 18 12 12 18 23
65 74 81 68 72 80 84 73 62 67 75 76 79 84 88 93 103 102 92 77 75 72 63 54 45 36 26 12 10 7 12 18
73 77 85 86 80 76 76 79 81 80 84 86 91 93 96 102 102 96 84 85 75 64 56 50 41 34 24 19 13 4 9 17
64 72 79 81 90 94 93 95 95 98 95 92 97 96 107 114 115 106 74 71 72 69 60 50 43 34 26 21 12 4 6 15
69 86 83 82 89 88 97 96 98 101 100 91 92 98 110 117 112 107 104 88 71 59 58 52 42 35 28 23 13 6 4 13
95 99 89 85 91 79 84 91 95 96 100 91 92 100 111 113 108 104 95 90 84 71 55 51 41 35 31 23 15 10 2 9
Wind_Direction_500mb
222 228 230 228 230 233 233 237 239 240 239 240 240 240 241 242 243 245 242 238 236 235 237 240 244 251 259 265 271 275 280 286
229 228 230 228 228 235 239 241 240 243 243 243 243 241 240 243 243 244 240 237 236 236 237 240 246 252 257 263 268 275 281 285
238 235 231 229 234 241 243 243 254 252 248 246 244 244 242 242 243 242 237 234 235 235 237 239 244 250 256 262 270 277 281 287
236 239 248 246 255 257 262 267 261 254 252 247 245 244 241 241 242 239 236 234 232 233 234 239 244 250 256 262 270 276 282 288
261 246 243 254 259 266 264 263 261 254 251 249 247 246 242 240 240 236 233 232 230 230 233 238 243 249 256 265 271 277 283 290
248 255 265 277 272 269 266 262 260 253 249 249 248 245 241 239 237 234 231 230 229 228 230 235 240 246 255 264 270 277 284 291
268 271 271 271 266 265 263 262 259 254 251 247 244 243 240 238 233 229 228 227 225 226 229 234 239 247 260 264 270 278 291 297
268 269 267 265 261 258 251 248 250 252 250 246 242 240 237 234 229 226 226 225 223 224 228 232 237 253 255 262 270 284 291 297
268 272 267 272 258 241 239 243 248 250 246 242 239 236 235 231 226 224 222 222 222 223 226 229 243 249 253 261 273 282 289 296
279 280 283 265 248 242 240 239 238 240 242 240 237 236 233 227 223 220 217 213 216 220 223 232 242 245 251 261 272 279 290 304
291 286 281 263 241 236 236 239 239 241 237 236 235 233 230 226 223 221 218 215 213 216 218 235 234 241 248 259 268 279 299 305
336 308 279 256 237 233 240 253 251 245 237 233 230 228 225 222 220 219 214 211 211 212 225 225 231 236 244 252 267 287 301 305
326 329 310 275 254 248 257 261 256 249 240 233 228 222 219 217 217 210 210 211 210 212 218 223 228 231 237 246 260 280 289 306
311 315 309 308 299 275 268 265 263 252 243 235 228 223 218 213 211 206 206 206 205 215 214 217 218 223 230 243 252 280 302 317
299 292 285 291 291 287 285 280 276 262 247 237 229 222 216 212 207 205 205 202 208 209 217 212 206 210 219 233 249 291 308 331
290 291 289 285 279 279 274 264 252 255 252 242 232 227 218 211 206 203 204 207 212 218 218 213 204 200 210 213 256 285 328 347
291 287 283 284 278 271 268 258 256 251 245 244 239 228 220 209 200 202 203 207 204 213 209 204 198 195 186 193 203 240 335 353
290 291 286 282 280 274 268 263 253 245 239 232 226 221 215 206 201 193 186 198 201 200 196 196 196 183 174 194 183 194 335 349
289 280 276 279 274 276 273 259 248 243 238 232 229 222 215 205 200 197 192 180 177 178 182 185 182 174 174 184 185 194 334 342
294 288 282 279 275 278 272 261 250 239 236 229 221 217 209 200 198 200 196 187 184 174 175 176 172 174 181 184 195 205 333 349
Wind_Speed_850mb
40 43 50 51 53 61 72 79 80 85 94 98 96 90 86 87 87 88 82 81 77 72 65 58 53 50 49 49 49 50 50 52
39 38 42 42 47 56 65 72 76 80 88 100 101 98 95 87 85 87 84 84 80 73 66 60 55 51 51 51 51 52 52 53
32 37 41 37 46 50 63 72 67 81 91 95 101 99 95 92 87 85 83 83 80 75 69 62 57 55 53 51 50 52 53 52
35 42 50 50 57 60 62 66 75 84 90 93 97 97 97 94 89 83 78 80 81 77 69 63 58 55 51 50 50 52 52 53
59 65 56 57 59 67 75 75 80 83 88 91 92 93 96 95 90 80 76 80 82 77 68 64 59 54 51 48 50 51 53 54
56 52 68 83 78 71 74 76 79 84 86 89 89 91 95 95 87 78 74 77 79 76 70 66 60 53 48 48 50 51 53 53
83 88 93 90 74 73 70 70 75 81 86 85 87 90 95 95 88 80 75 77 81 76 69 64 55 48 47 51 48 50 50 54
80 92 87 75 61 63 63 61 69 80 84 86 85 86 93 90 83 78 77 80 82 75 69 58 48 45 51 47 48 45 49 51
74 85 83 78 55 48 54 56 61 73 83 84 82 84 90 84 82 79 79 79 78 72 62 52 41 53 48 47 41 44 46 47
83 89 77 60 49 48 50 52 61 69 75 80 81 84 88 87 85 84 83 83 80 70 58 44 57 51 49 42 39 42 43 43
74 76 67 52 46 47 51 50 52 59 67 71 74 81 81 79 79 77 77 79 76 67 52 59 53 51 44 36 36 39 38 42
60 57 51 52 45 42 41 43 50 57 62 68 74 78 77 77 76 77 84 82 72 63 60 57 52 44 35 31 32 29 33 42
73 62 49 35 36 38 38 38 45 58 68 72 75 78 81 77 78 83 88 82 76 64 64 54 48 38 31 29 23 18 30 34
63 62 62 59 51 48 49 44 46 59 69 74 76 79 79 82 85 92 91 86 72 69 60 56 44 34 29 23 16 19 21 27
65 69 69 72 75 68 55 55 60 62 72 75 79 84 83 86 89 98 94 84 73 67 65 54 44 35 27 18 12 12 18 23
65 74 81 68 72 80 84 73 62 67 75 76 79 84 88 93 103 102 92 77 75 72 63 54 45 36 26 12 10 7 12 18
73 77 85 86 80 76 76 79 81 80 84 86 91 93 96 102 102 96 84 85 75 64 56 50 41 34 24 19 13 4 9 17
64 72 79 81 90 94 93 95 95 98 95 92 97 96 107 114 115 106 74 71 72 69 60 50 43 34 26 21 12 4 6 15
69 86 83 82 89 88 97 96 98 101 100 91 92 98 110 117 112 107 104 88 71 59 58 52 42 35 28 23 13 6 4 13
95 99 89 85 91 79 84 91 95 96 100 91 92 100 111 113 108 104 95 90 84 71 55 51 41 35 31 23 15 10 2 9
Wind_Direction_850mb
222 228 230 228 230 233 233 237 239 240 239 240 240 240 241 242 243 245 242 238 236 235 237 240 244 251 259 265 271 275 280 286
229 228 230 228 228 235 239 241 240 243 243 243 243 241 240 243 243 244 240 237 236 236 237 240 246 252 257 263 268 275 281 285
238 235 231 229 234 241 243 243 254 252 248 246 244 244 242 242 243 242 237 234 235 235 237 239 244 250 256 262 270 277 281 287
236 239 248 246 255 257 262 267 261 254 252 247 245 244 241 241 242 239 236 234 232 233 234 239 244 250 256 262 270 276 282 288
261 246 243 254 259 266 264 263 261 254 251 249 247 246 242 240 240 236 233 232 230 230 233 238 243 249 256 265 271 277 283 290
248 255 265 277 272 269 266 262 260 253 249 249 248 245 241 239 237 234 231 230 229 228 230 235 240 246 255 264 270 277 284 291
268 271 271 271 266 265 263 262 259 254 251 247 244 243 240 238 233 229 228 227 225 226 229 234 239 247 260 264 270 278 291 297
268 269 267 265 261 258 251 248 250 252 250 246 242 240 237 234 229 226 226 225 223 224 228 232 237 253 255 262 270 284 291 297
268 272 267 272 258 241 239 243 248 250 246 242 239 236 235 231 226 224 222 222 222 223 226 229 243 249 253 261 273 282 289 296
279 280 283 265 248 242 240 239 238 240 242 240 237 236 233 227 223 220 217 213 216 220 223 232 242 245 251 261 272 279 290 304
291 286 281 263 241 236 236 239 239 241 237 236 235 233 230 226 223 221 218 215 213 216 218 235 234 241 248 259 268 279 299 305
336 308 279 256 237 233 240 253 251 245 237 233 230 228 225 222 220 219 214 211 211 212 225 225 231 236 244 252 267 287 301 305
326 329 310 275 254 248 257 261 256 249 240 233 228 222 219 217 217 210 210 211 210 212 218 223 228 231 237 246 260 280 289 306
311 315 309 308 299 275 268 265 263 252 243 235 228 223 218 213 211 206 206 206 205 215 214 217 218 223 230 243 252 280 302 317
299 292 285 291 291 287 285 280 276 262 247 237 229 222 216 212 207 205 205 202 208 209 217 212 206 210 219 233 249 291 308 331
290 291 289 285 279 279 274 264 252 255 252 242 232 227 218 211 206 203 204 207 212 218 218 213 204 200 210 213 256 285 328 347
291 287 283 284 278 271 268 258 256 251 245 244 239 228 220 209 200 202 203 207 204 213 209 204 198 195 186 193 203 240 335 353
290 291 286 282 280 274 268 263 253 245 239 232 226 221 215 206 201 193 186 198 201 200 196 196 196 183 174 194 183 194 335 349
289 280 276 279 274 276 273 259 248 243 238 232 229 222 215 205 200 197 192 180 177 178 182 185 182 174 174 184 185 194 334 342
294 288 282 279 275 278 272 261 250 239 236 229 221 217 209 200 198 200 196 187 184 174 175 176 172 174 181 184 195 205 333 349